Christchurch, New Zealand

12:29 PM NZST on April 26, 2018 (GMT +1200)
Christchurch International

Weather History for NZCH - October, 2012

Change the Weather History Date:

Wednesday, October 3, 2012

  Actual Average Record
Temperature  
Mean Temperature 56 °F -  
Max Temperature 71 °F 59 °F 73 °F (2017)
Min Temperature 41 °F 41 °F 33 °F (2004)
Degree Days  
Heating Degree Days 9    
Growing Degree Days 6 (Base 50)    
Moisture  
Dew Point 43 °F    
Average Humidity 78    
Maximum Humidity 100    
Minimum Humidity 29    
Precipitation  
Precipitation 0.00 in - - ()
Sea Level Pressure  
Sea Level Pressure 29.50 in    
Wind  
Wind Speed 6 mph ()    
Max Wind Speed 16 mph    
Max Gust Speed -    
Visibility 6.2 miles    
Events      
Averages and records for this station are not official NWS values.
T = Trace of Precipitation, MM = Missing Value Source: Averaged Metar Reports

Daily Weather History Graph

Daily Weather History Graph

Search for Another Location

Airport or City:

Astronomy

Oct. 03, 2012 Rise Set
Actual Time 6:59 AM NZDT 7:39 PM NZDT
Civil Twilight 6:30 AM NZDT 8:08 PM NZDT
Nautical Twilight 5:56 AM NZDT 8:42 PM NZDT
Astronomical Twilight 5:21 AM NZDT 9:17 PM NZDT
Moon 10:48 PM NZDT (10/3) 8:05 AM NZDT (10/3)
Length of Visible Light 13h 37m
Length of Day
12h 39m
Waning Gibbous, 93% of the Moon is Illuminated
Oct 3
Waning Gibbous
Oct 8
Last Quarter
Oct 16
New
Oct 22
First Quarter
Oct 30
Full

Hourly Weather History & Observations

Time (NZDT) Temp. Windchill Dew Point Humidity Pressure Visibility Wind Dir Wind Speed Gust Speed Precip Events Conditions
12:00 AM 46.4 °F 44.3 °F 44.6 °F 93% 29.62 in - East 4.6 mph - N/A   Clear
1:00 AM 42.8 °F 40.1 °F 41.0 °F 93% 29.59 in - ENE 4.6 mph - N/A   Clear
2:00 AM 44.6 °F 43.1 °F 42.8 °F 93% 29.56 in - NNE 3.5 mph - N/A   Clear
3:00 AM 42.8 °F 40.1 °F 42.8 °F 100% 29.53 in - NE 4.6 mph - N/A   Clear
4:00 AM 41.0 °F 39.0 °F 39.2 °F 93% 29.50 in - NNE 3.5 mph - N/A   Clear
5:00 AM 44.6 °F 42.2 °F 44.6 °F 100% 29.50 in - NNE 4.6 mph - N/A   Clear
6:00 AM 44.6 °F - 42.8 °F 93% 29.50 in - East 1.2 mph - N/A   Clear
7:00 AM 41.0 °F 39.0 °F 39.2 °F 93% 29.50 in - NNE 3.5 mph - N/A   Clear
8:00 AM 42.8 °F - 41.0 °F 93% 29.50 in - NNE 2.3 mph - N/A   Clear
9:00 AM 48.2 °F - 46.4 °F 93% 29.50 in - NE 2.3 mph - N/A   Clear
10:00 AM 57.2 °F - 44.6 °F 63% 29.50 in - ENE 2.3 mph - N/A   Clear
11:00 AM 62.6 °F - 41.0 °F 45% 29.50 in - NNW 3.5 mph - N/A   Clear
12:00 PM 68.0 °F - 35.6 °F 30% 29.50 in - WNW 16.1 mph - N/A   Clear
1:00 PM 69.8 °F - 37.4 °F 31% 29.50 in - West 13.8 mph - N/A   Clear
2:00 PM 71.6 °F - 37.4 °F 29% 29.47 in - WNW 11.5 mph - N/A   Clear
3:00 PM 57.2 °F - 46.4 °F 67% 29.50 in - SSW 16.1 mph - N/A   Clear
4:00 PM 53.6 °F - 44.6 °F 72% 29.50 in - SW 13.8 mph - N/A   Clear
5:00 PM 53.6 °F - 44.6 °F 72% 29.53 in 6.2 mi West 4.6 mph - N/A   Mostly Cloudy
6:00 PM 51.8 °F - 46.4 °F 82% 29.50 in 6.2 mi NE 12.7 mph - N/A   Mostly Cloudy
7:00 PM 50.0 °F - 44.6 °F 82% 29.50 in 6.2 mi NE 13.8 mph - N/A   Scattered Clouds
8:00 PM 50.0 °F - 44.6 °F 82% 29.47 in 6.2 mi ENE 15.0 mph - N/A   Mostly Cloudy
9:00 PM 48.2 °F - 44.6 °F 87% 29.44 in 6.2 mi ENE 15.0 mph - N/A   Partly Cloudy
10:00 PM 48.2 °F - 44.6 °F 87% 29.42 in 6.2 mi ENE 13.8 mph - N/A   Partly Cloudy
11:00 PM 48.2 °F - 44.6 °F 87% 29.39 in 6.2 mi East 11.5 mph - N/A   Partly Cloudy